Location: ???????
(55.7027°N, 37.3832°E)
Time: 22:21:27
(UTC+00:00)

SL-16 R/B - Pass Details

Date: 14 April 2026
Orbit: 839 x 849 km, 71.0° (Epoch: 13 May)

Event Time Altitude Azimuth Distance (km) Brightness Sun altitude
Exits shadow 19:31:28 39° 144° (SE) 1,242 2.5 -20.1°
Maximum altitude 19:32:38 44° 112° (ESE) 1,148 2.5 -20.2°
Drops below altitude 10° 19:37:59 10° 42° (NE) 2,478 4.8 -20.6°
Sets 19:40:32 0° 36° (NE) 3,419 5.7 -20.8°
